| time (UTC) | temp C | wind direction | speed KPH | gust KPH | rain 1hr cm | rain 24hr cm | rain mn cm | humidity % | barometer mb |
| 20260906003035 | 27 | 55 | 1.6 | 16.1 | 0.00 | 0.00 | 0.00 | 76 | 1011.1 |
| 20260906001535 | 28 | 22 | 4.8 | 11.3 | 0.00 | 0.00 | 0.00 | 75 | 1011.1 |
| 20260906000035 | 28 | 94 | 6.4 | 19.3 | 0.00 | 0.00 | 0.00 | 74 | 1010.8 |
| 20260905234534 | 29 | 39 | 6.4 | 22.5 | 0.00 | 0.00 | 0.00 | 73 | 1010.8 |
| 20260905233040 | 31 | 58 | 6.4 | 22.5 | 0.00 | 0.00 | 0.00 | 70 | 1010.8 |
| 20260905231533 | 32 | 9 | 0.0 | 12.9 | 0.00 | 0.00 | 0.00 | 66 | 1010.5 |
| 20260905230038 | 32 | 360 | 0.0 | 17.7 | 0.00 | 0.00 | 0.00 | 65 | 1010.3 |
| 20260905224634 | 32 | 319 | 8.0 | 16.1 | 0.00 | 0.00 | 0.00 | 64 | 1010.2 |
| 20260905223031 | 33 | 338 | 0.0 | 14.5 | 0.00 | 0.00 | 0.00 | 63 | 1010.2 |
| 20260905221531 | 33 | 348 | 8.0 | 16.1 | 0.00 | 0.00 | 0.00 | 62 | 1010.1 |
| 20260905220035 | 34 | 340 | 8.0 | 17.7 | 0.00 | 0.00 | 0.00 | 61 | 1010.1 |
| 20260905214529 | 34 | 9 | 4.8 | 14.5 | 0.00 | 0.00 | 0.00 | 61 | 1009.9 |
| 20260905213029 | 33 | 336 | 0.0 | 17.7 | 0.00 | 0.00 | 0.00 | 62 | 1010.1 |
| 20260905211528 | 35 | 15 | 8.0 | 17.7 | 0.00 | 0.00 | 0.00 | 60 | 1010.1 |
| 20260905210027 | 35 | 333 | 0.0 | 16.1 | 0.00 | 0.00 | 0.00 | 60 | 1010.0 |
| 20260905204527 | 35 | 338 | 8.0 | 16.1 | 0.00 | 0.00 | 0.00 | 60 | 1010.2 |
| 20260905203025 | 34 | 355 | 0.0 | 1.6 | 0.00 | 0.00 | 0.00 | 63 | 1010.3 |
| 20260905201526 | 35 | 17 | 9.7 | 19.3 | 0.00 | 0.00 | 0.00 | 58 | 1010.2 |
| 20260905200026 | 36 | 312 | 6.4 | 16.1 | 0.00 | 0.00 | 0.00 | 56 | 1010.3 |
| 20260905194523 | 36 | 284 | 4.8 | 14.5 | 0.00 | 0.00 | 0.00 | 55 | 1010.3 |
| 20260905193023 | 35 | 341 | 0.0 | 16.1 | 0.00 | 0.00 | 0.00 | 58 | 1010.6 |
| 20260905191520 | 37 | 342 | 8.0 | 17.7 | 0.00 | 0.00 | 0.00 | 52 | 1010.7 |
| 20260905190019 | 36 | 350 | 0.0 | 14.5 | 0.00 | 0.00 | 0.00 | 54 | 1010.8 |
| 20260905184518 | 36 | 333 | 1.6 | 12.9 | 0.00 | 0.00 | 0.00 | 55 | 1010.9 |
| 20260905183017 | 36 | 28 | 6.4 | 14.5 | 0.00 | 0.00 | 0.00 | 53 | 1011.0 |
| 20260905181516 | 36 | 319 | 0.0 | 16.1 | 0.00 | 0.00 | 0.00 | 54 | 1011.1 |
| 20260905180017 | 36 | 303 | 8.0 | 16.1 | 0.00 | 0.00 | 0.00 | 54 | 1011.2 |
| 20260905174513 | 36 | 279 | 6.4 | 16.1 | 0.00 | 0.00 | 0.00 | 55 | 1011.3 |
| 20260905173021 | 35 | 287 | 9.7 | 17.7 | 0.00 | 0.00 | 0.00 | 55 | 1011.2 |
| 20260905171519 | 35 | 336 | 0.0 | 9.7 | 0.00 | 0.00 | 0.00 | 55 | 1011.4 |
| 20260905170012 | 35 | 304 | 6.4 | 14.5 | 0.00 | 0.00 | 0.00 | 56 | 1011.6 |
| 20260905164511 | 35 | 329 | 8.0 | 16.1 | 0.00 | 0.00 | 0.00 | 54 | 1011.7 |
| 20260905161507 | 35 | 305 | 1.6 | 11.3 | 0.00 | 0.00 | 0.00 | 55 | 1011.5 |
| 20260905160011 | 35 | 285 | 3.2 | 12.9 | 0.00 | 0.00 | 0.00 | 55 | 1011.7 |
| 20260905154505 | 35 | 296 | 1.6 | 12.9 | 0.00 | 0.00 | 0.00 | 55 | 1011.7 |
| 20260905153007 | 35 | 304 | 1.6 | 14.5 | 0.00 | 0.00 | 0.00 | 56 | 1011.6 |
| 20260905151608 | 34 | 306 | 1.6 | 8.0 | 0.00 | 0.00 | 0.00 | 59 | 1011.4 |
| 20260905150059 | 33 | 311 | 3.2 | 9.7 | 0.00 | 0.00 | 0.00 | 59 | 1011.3 |
| 20260905144557 | 32 | 299 | 3.2 | 9.7 | 0.00 | 0.00 | 0.00 | 61 | 1011.4 |
| 20260905143051 | 31 | 302 | 4.8 | 8.0 | 0.00 | 0.00 | 0.00 | 65 | 1011.4 |
| 20260905141549 | 31 | 299 | 0.0 | 8.0 | 0.00 | 0.00 | 0.00 | 67 | 1011.7 |
| 20260905140046 | 30 | 300 | 3.2 | 8.0 | 0.00 | 0.00 | 0.00 | 70 | 1011.7 |
| 20260905134543 | 30 | 268 | 0.0 | 8.0 | 0.00 | 0.00 | 0.00 | 72 | 1011.5 |
| 20260905133042 | 29 | 266 | 0.0 | 6.4 | 0.00 | 0.00 | 0.00 | 73 | 1011.5 |
| 20260905131538 | 28 | 265 | 1.6 | 6.4 | 0.00 | 0.00 | 0.00 | 74 | 1011.5 |
| 20260905130036 | 28 | 316 | 3.2 | 4.8 | 0.00 | 0.00 | 0.00 | 77 | 1011.5 |
| 20260905124539 | 27 | 323 | 3.2 | 4.8 | 0.00 | 0.00 | 0.00 | 78 | 1011.5 |
| 20260905123031 | 27 | 333 | 0.0 | 0.0 | 0.00 | 0.00 | 0.00 | 80 | 1011.4 |
| 20260905121530 | 26 | 333 | 0.0 | 0.0 | 0.00 | 0.00 | 0.00 | 81 | 1011.4 |
| 20260905120030 | 26 | 333 | 0.0 | 0.0 | 0.00 | 0.00 | 0.00 | 83 | 1011.3 |
| 20260905114530 | 26 | 333 | 0.0 | 0.0 | 0.00 | 0.00 | 0.00 | 83 | 1011.1 |
| 20260905113029 | 26 | 333 | 0.0 | 0.0 | 0.00 | 0.00 | 0.00 | 82 | 1011.1 |
| 20260905111530 | 26 | 333 | 0.0 | 0.0 | 0.00 | 0.00 | 0.00 | 81 | 1011.0 |
| 20260905110028 | 26 | 333 | 0.0 | 0.0 | 0.00 | 0.00 | 0.00 | 81 | 1011.0 |
| 20260905104528 | 26 | 333 | 0.0 | 0.0 | 0.00 | 0.00 | 0.00 | 82 | 1011.2 |
| 20260905103027 | 26 | 333 | 1.6 | 3.2 | 0.00 | 0.00 | 0.00 | 83 | 1011.1 |
| 20260905101526 | 26 | 335 | 0.0 | 1.6 | 0.00 | 0.00 | 0.00 | 84 | 1011.3 |
| 20260905100025 | 26 | 335 | 0.0 | 0.0 | 0.00 | 0.00 | 0.00 | 85 | 1011.3 |
| 20260905094533 | 26 | 335 | 0.0 | 0.0 | 0.00 | 0.00 | 0.00 | 85 | 1011.2 |
| 20260905093024 | 26 | 335 | 0.0 | 0.0 | 0.00 | 0.00 | 0.00 | 84 | 1011.2 |
| 20260905091625 | 26 | 335 | 0.0 | 0.0 | 0.00 | 0.00 | 0.00 | 84 | 1011.1 |
| 20260905090021 | 26 | 335 | 0.0 | 0.0 | 0.00 | 0.00 | 0.00 | 83 | 1011.0 |
| 20260905084521 | 26 | 335 | 0.0 | 0.0 | 0.00 | 0.00 | 0.00 | 82 | 1010.9 |
| 20260905083021 | 27 | 335 | 0.0 | 0.0 | 0.00 | 0.00 | 0.00 | 81 | 1011.0 |
| 20260905081520 | 27 | 335 | 0.0 | 0.0 | 0.00 | 0.00 | 0.00 | 80 | 1010.9 |
| 20260905080019 | 27 | 335 | 0.0 | 1.6 | 0.00 | 0.00 | 0.00 | 81 | 1010.9 |
| 20260905074520 | 27 | 340 | 1.6 | 4.8 | 0.00 | 0.00 | 0.00 | 81 | 1010.7 |
| 20260905073017 | 27 | 5 | 0.0 | 1.6 | 0.00 | 0.00 | 0.00 | 83 | 1010.7 |
| 20260905071515 | 26 | 5 | 0.0 | 1.6 | 0.00 | 0.00 | 0.00 | 85 | 1010.9 |
| 20260905070022 | 26 | 5 | 0.0 | 0.0 | 0.00 | 0.00 | 0.00 | 85 | 1011.0 |
| 20260905064512 | 26 | 5 | 0.0 | 0.0 | 0.00 | 0.00 | 0.00 | 85 | 1011.2 |
| 20260905063011 | 26 | 5 | 0.0 | 0.0 | 0.00 | 0.00 | 0.00 | 85 | 1011.3 |
| 20260905061509 | 26 | 5 | 0.0 | 0.0 | 0.00 | 0.00 | 0.00 | 85 | 1011.4 |
| 20260905060010 | 27 | 5 | 0.0 | 0.0 | 0.00 | 0.00 | 0.00 | 83 | 1011.4 |
| 20260905054508 | 27 | 5 | 0.0 | 0.0 | 0.00 | 0.00 | 0.00 | 82 | 1011.4 |
| 20260905053004 | 27 | 5 | 0.0 | 0.0 | 0.00 | 0.00 | 0.00 | 81 | 1011.5 |
| 20260905051507 | 27 | 5 | 0.0 | 0.0 | 0.00 | 0.00 | 0.00 | 81 | 1011.4 |
| 20260905050000 | 27 | 5 | 0.0 | 0.0 | 0.00 | 0.00 | 0.00 | 81 | 1011.5 |
| 20260905044502 | 27 | 5 | 0.0 | 0.0 | 0.00 | 0.00 | 0.00 | 81 | 1011.6 |
| 20260905043100 | 27 | 5 | 0.0 | 0.0 | 0.00 | 0.00 | 0.00 | 80 | 1011.7 |
| 20260905041607 | 27 | 5 | 0.0 | 0.0 | 0.00 | 0.00 | 0.00 | 80 | 1011.6 |
| 20260905040059 | 27 | 5 | 0.0 | 0.0 | 0.00 | 0.00 | 0.00 | 79 | 1011.8 |
| 20260905040002 | 27 | 5 | 0.0 | 0.0 | 0.00 | 0.00 | 0.00 | 79 | 1011.8 |
| 20260905034610 | 28 | 5 | 0.0 | 0.0 | 0.00 | 0.00 | 0.00 | 79 | 1011.7 |
| 20260905033100 | 28 | 5 | 0.0 | 0.0 | 0.00 | 0.00 | 0.00 | 77 | 1011.8 |
| 20260905031559 | 28 | 5 | 0.0 | 0.0 | 0.00 | 0.00 | 0.00 | 77 | 1011.8 |
| 20260905024601 | 28 | 5 | 0.0 | 0.0 | 0.00 | 0.00 | 0.00 | 75 | 1011.7 |
| 20260905023056 | 29 | 5 | 0.0 | 0.0 | 0.00 | 0.00 | 0.00 | 74 | 1011.7 |
| 20260905021557 | 29 | 5 | 0.0 | 1.6 | 0.00 | 0.00 | 0.00 | 73 | 1011.5 |
| 20260905020054 | 30 | 5 | 0.0 | 0.0 | 0.00 | 0.00 | 0.00 | 70 | 1011.5 |
| 20260905014554 | 30 | 5 | 0.0 | 0.0 | 0.00 | 0.00 | 0.00 | 70 | 1011.2 |
| 20260905013053 | 30 | 5 | 0.0 | 0.0 | 0.00 | 0.00 | 0.00 | 69 | 1011.1 |
| 20260905011552 | 30 | 5 | 0.0 | 0.0 | 0.00 | 0.00 | 0.00 | 68 | 1011.0 |
| 20260905010052 | 31 | 227 | 0.0 | 0.0 | 0.00 | 0.00 | 0.00 | 68 | 1010.9 |
| 20260905004552 | 31 | 227 | 0.0 | 1.6 | 0.00 | 0.00 | 0.00 | 65 | 1010.8 |